Погода в Каратау

Казахстан     43°10′46″N   70°27′55″E
темп.,
°C
ветер,
м/с
пор.,
м/с
влажн.,
%
обл.,
%
осадки,
мм/ч
давл.,
гПа
погр.,
м
19 сентября, вс
вс1900:00+19юв11320 0.0 101011
03:00+18в11340 0.0 100911
06:00+17сз44340 0.0 101048
09:00+19сз57219 0.0 1013299
12:00+23ссз45165 0.0 1013756
15:00+27ссз77130 0.0 1012920
18:00+25ссз77145 0.0 10141051
21:00+20с582082 0.0 1017400
20 сентября, пн
пн2000:00+16ссв353092 0.0 1018148
03:00+13ссв223425 0.0 101950
06:00+11ссв22374 0.0 101923
09:00+14всв22300 0.0 1019336
12:00+18всв33210 0.0 1018902
15:00+22св33170 0.0 10161202
18:00+22св44176 0.0 10161214
21:00+18св481974 0.0 1016204
21 сентября, вт
вт2100:00+14ссв11195 0.0 101611
03:00+13с22190 0.0 101613
06:00+11сз22210 0.0 101611
09:00+14ссз221816 0.0 1017235
12:00+19св33190 0.0 1016886
15:00+22св33150 0.0 10141243
18:00+22ссв44140 0.0 10141297
21:00+17ссв34190 0.0 101447
22 сентября, ср
ср2200:00+14ссз11220 0.0 101510
03:00+12сз22235 0.0 101518
06:00+10ссз223082 0.0 101611
09:00+13с11305 0.0 1016199
12:00+19св33210 0.0 1016818
15:00+22св43140 0.0 10141314
18:00+22св441464 0.0 10141364
21:00+17всв3719100 0.0 1016155
23 сентября, чт
чт2300:00+14всв22245 0.0 101624
03:00+11всв22345 0.0 101724
06:00+9юв11425 0.0 101811
09:00+12в12308 0.0 1018231
12:00+18всв34200 0.0 1018821
15:00+22св44150 0.0 10171312
18:00+21св661585 0.0 10171319
21:00+16всв4918100 0.0 1018217